GW4410 Weather Reports


Display with metric or nautical units.
time (UTC)temp
F
wind
direction
speed
MPH
gust
MPH
rain 1hr
in
rain 24hr
in
rain mn
in
humidity
%
barometer
mb
20260510220200 63 295 0.0 0.0 0.00 0.00 0.00 76 1040.2
20260510215657 63 102 1.0 1.0 0.00 0.00 0.00 75 1040.3
20260510215156 63 342 2.0 2.0 0.00 0.00 0.00 75 1040.6
20260510214652 63 14 2.0 2.0 0.00 0.00 0.00 76 1040.2
20260510214149 63 318 1.0 4.0 0.00 0.00 0.00 74 1040.2
20260510213646 64 68 1.0 3.0 0.00 0.00 0.00 70 1040.0
20260510213143 65 41 4.0 4.0 0.00 0.00 0.00 68 1040.0
20260510212639 64 343 2.0 3.0 0.00 0.00 0.00 70 1040.1
20260510212136 64 343 2.0 6.0 0.00 0.00 0.00 70 1040.2
20260510211632 64 133 3.0 4.0 0.00 0.00 0.00 68 1039.9
20260510211127 64 20 3.0 7.0 0.00 0.00 0.00 68 1039.6
20260510210624 66 43 2.0 5.0 0.00 0.00 0.00 80 1040.0
20260510210120 66 213 2.0 2.0 0.00 0.00 0.00 82 1039.5
20260510205618 66 213 2.0 2.0 0.00 0.00 0.00 82 1039.6
20260510205114 66 213 2.0 2.0 0.00 0.00 0.00 82 1039.5
20260510204610 66 48 1.0 2.0 0.00 0.00 0.00 82 1039.1
20260510204107 66 210 1.0 2.0 0.00 0.00 0.00 83 1039.3
20260510203559 66 100 2.0 3.0 0.00 0.00 0.00 82 1039.2
20260510203056 66 254 1.0 2.0 0.00 0.00 0.00 81 1039.4
20260510202554 66 307 2.0 2.0 0.00 0.00 0.00 82 1039.2
20260510202051 66 211 1.0 2.0 0.00 0.00 0.00 82 1039.3
20260510201548 67 202 2.0 2.0 0.00 0.00 0.00 80 1039.3
20260510201045 66 220 2.0 3.0 0.00 0.00 0.00 80 1039.2
20260510200541 68 221 2.0 3.0 0.00 0.00 0.00 79 1039.3
20260510200039 68 207 1.0 3.0 0.00 0.00 0.00 77 1039.3
20260510195536 69 193 2.0 2.0 0.00 0.00 0.00 75 1039.4
20260510195032 67 219 1.0 1.0 0.00 0.00 0.00 77 1039.4
20260510194527 67 183 2.0 3.0 0.00 0.00 0.00 79 1039.4
20260510194024 66 281 0.0 1.0 0.00 0.00 0.00 80 1039.4
20260510193519 66 195 2.0 2.0 0.00 0.00 0.00 79 1039.4
20260510193015 66 268 2.0 2.0 0.00 0.00 0.00 81 1039.5
20260510192510 65 165 1.0 3.0 0.00 0.00 0.00 81 1039.9
20260510192006 66 200 1.0 3.0 0.00 0.00 0.00 80 1039.8
20260510191502 66 266 2.0 2.0 0.00 0.00 0.00 78 1039.8
20260510190959 66 310 0.0 1.0 0.00 0.00 0.00 78 1039.5
20260510190456 66 243 2.0 2.0 0.00 0.00 0.00 78 1039.6
20260510185953 67 158 1.0 1.0 0.00 0.00 0.00 77 1039.8
20260510185450 67 200 2.0 2.0 0.00 0.00 0.00 77 1039.6
20260510184948 66 309 2.0 3.0 0.00 0.00 0.00 76 1039.6
20260510184445 66 200 0.0 1.0 0.00 0.00 0.00 76 1039.9
20260510183944 66 200 0.0 1.0 0.00 0.00 0.00 76 1039.9
20260510183441 66 208 3.0 4.0 0.00 0.00 0.00 76 1039.8
20260510182936 67 268 2.0 4.0 0.00 0.00 0.00 75 1039.8
20260510182432 69 217 3.0 5.0 0.00 0.00 0.00 70 1039.6
20260510181928 69 253 2.0 5.0 0.00 0.00 0.00 71 1039.6
20260510181426 69 252 2.0 5.0 0.00 0.00 0.00 72 1039.9
20260510180922 68 210 1.0 3.0 0.00 0.00 0.00 72 1039.8
20260510180419 69 241 2.0 4.0 0.00 0.00 0.00 74 1040.0
20260510175916 68 302 2.0 4.0 0.00 0.00 0.00 75 1040.0
20260510175412 67 90 0.0 2.0 0.00 0.00 0.00 79 1040.0
20260510174908 64 316 2.0 3.0 0.00 0.00 0.00 80 1040.3
20260510174406 66 315 4.0 4.0 0.00 0.00 0.00 78 1040.1
20260510173902 65 264 2.0 2.0 0.00 0.00 0.00 81 1039.8
20260510173358 66 241 2.0 2.0 0.00 0.00 0.00 81 1039.8
20260510172854 66 241 2.0 2.0 0.00 0.00 0.00 81 1039.8
20260510172350 66 180 2.0 4.0 0.00 0.00 0.00 79 1039.5
20260510171847 65 277 0.0 1.0 0.00 0.00 0.00 81 1039.6
20260510171344 65 277 0.0 1.0 0.00 0.00 0.00 81 1039.5
20260510170841 66 308 1.0 3.0 0.00 0.00 0.00 79 1039.6
20260510170337 66 248 2.0 2.0 0.00 0.00 0.00 79 1040.0
20260510165832 66 241 3.0 4.0 0.00 0.00 0.00 77 1039.9
20260510165324 67 223 3.0 4.0 0.00 0.00 0.00 78 1039.9
20260510164821 64 312 0.0 3.0 0.00 0.00 0.00 81 1040.0
20260510164319 65 262 3.0 3.0 0.00 0.00 0.00 81 1039.9
20260510163818 65 203 0.0 4.0 0.00 0.00 0.00 81 1039.9
20260510163315 66 262 1.0 4.0 0.00 0.00 0.00 79 1040.0
20260510162814 65 218 4.0 4.0 0.00 0.00 0.00 79 1040.0
20260510162312 65 232 3.0 3.0 0.00 0.00 0.00 79 1040.0
20260510161807 65 258 3.0 4.0 0.00 0.00 0.00 80 1039.9
20260510161303 64 213 5.0 5.0 0.00 0.00 0.00 81 1040.0
20260510160800 64 275 2.0 3.0 0.00 0.00 0.00 82 1040.0
20260510160257 64 258 4.0 4.0 0.00 0.00 0.00 81 1040.1
20260510155757 64 167 0.0 3.0 0.00 0.00 0.00 83 1040.1
20260510155253 62 277 2.0 2.0 0.00 0.00 0.00 85 1040.1
20260510154749 62 325 3.0 3.0 0.00 0.00 0.00 84 1040.2
20260510154245 60 258 2.0 3.0 0.00 0.00 0.00 89 1040.5
20260510153740 60 257 3.0 4.0 0.00 0.00 0.00 88 1040.5
20260510153236 61 260 3.0 5.0 0.00 0.00 0.00 87 1040.4
20260510152733 59 358 1.0 4.0 0.00 0.00 0.00 88 1040.4
20260510152229 60 196 2.0 3.0 0.00 0.00 0.00 89 1040.4
20260510151726 60 14 0.0 2.0 0.00 0.00 0.00 89 1040.3
20260510151225 58 272 3.0 3.0 0.00 0.00 0.00 91 1040.8
20260510150720 58 252 2.0 3.0 0.00 0.00 0.00 91 1040.5
20260510150215 58 231 2.0 3.0 0.00 0.00 0.00 92 1040.6
20260510145712 57 87 1.0 2.0 0.00 0.00 0.00 95 1040.5
20260510145208 55 215 0.0 2.0 0.00 0.00 0.00 96 1040.4
20260510144705 55 203 2.0 3.0 0.00 0.00 0.00 94 1040.3
20260510144201 55 254 0.0 2.0 0.00 0.00 0.00 94 1040.4
20260510143656 56 85 2.0 2.0 0.00 0.00 0.00 94 1040.4
20260510143153 55 87 0.0 2.0 0.00 0.00 0.00 94 1040.4
20260510142649 56 206 0.0 2.0 0.00 0.00 0.00 95 1040.2
20260510142146 56 229 1.0 2.0 0.00 0.00 0.00 94 1040.1
20260510141643 57 189 2.0 3.0 0.00 0.00 0.00 93 1040.2
20260510141142 56 268 0.0 3.0 0.00 0.00 0.00 93 1040.0
20260510140637 57 218 0.0 1.0 0.00 0.00 0.00 93 1040.0
20260510140137 57 254 2.0 2.0 0.00 0.00 0.00 92 1039.8
20260510135632 57 254 2.0 2.0 0.00 0.00 0.00 92 1040.1
20260510135129 57 7 0.0 2.0 0.00 0.00 0.00 93 1039.9
20260510134626 55 306 0.0 0.0 0.00 0.00 0.00 99 1039.8
20260510134123 55 306 0.0 0.0 0.00 0.00 0.00 99 1039.8
20260510133619 55 306 0.0 0.0 0.00 0.00 0.00 99 1039.9
20260510133114 55 306 0.0 0.0 0.00 0.00 0.00 99 1039.8
20260510132612 55 306 0.0 0.0 0.00 0.00 0.00 99 1039.9
20260510132109 55 306 0.0 0.0 0.00 0.00 0.00 99 1039.8
20260510131606 55 306 0.0 0.0 0.00 0.00 0.00 99 1040.1
20260510131103 55 306 0.0 0.0 0.00 0.00 0.00 99 1040.2
20260510130559 53 302 1.0 2.0 0.00 0.00 0.00 99 1040.0
20260510130057 53 302 1.0 2.0 0.00 0.00 0.00 99 1039.8
20260510125553 53 302 1.0 2.0 0.00 0.00 0.00 99 1039.9
20260510125049 53 170 0.0 1.0 0.00 0.00 0.00 99 1039.8
20260510124546 53 12 0.0 1.0 0.00 0.00 0.00 99 1039.8
20260510124044 53 12 0.0 2.0 0.00 0.00 0.00 99 1039.8
20260510123539 53 317 0.0 0.0 0.00 0.00 0.00 99 1039.9
20260510123035 53 320 1.0 1.0 0.00 0.00 0.00 99 1039.6
20260510122531 52 355 1.0 1.0 0.00 0.00 0.00 99 1039.3
20260510122027 52 340 0.0 2.0 0.00 0.00 0.00 99 1039.2
20260510121524 52 322 2.0 2.0 0.00 0.00 0.00 99 1039.5
20260510121022 52 7 0.0 0.0 0.00 0.00 0.00 99 1039.6
20260510120519 51 308 2.0 3.0 0.00 0.00 0.00 99 1039.5
20260510120015 52 344 2.0 2.0 0.00 0.00 0.00 99 1039.3
20260510115512 51 36 2.0 2.0 0.00 0.00 0.00 99 1039.3
20260510115008 51 29 2.0 2.0 0.00 0.00 0.00 99 1038.9
20260510114504 51 54 0.0 1.0 0.00 0.00 0.00 99 1038.9
20260510114000 51 304 1.0 3.0 0.00 0.00 0.00 99 1039.0
20260510113455 51 290 2.0 2.0 0.00 0.00 0.00 99 1038.9
20260510112953 50 289 0.0 2.0 0.00 0.00 0.00 99 1038.8
20260510112450 51 57 0.0 1.0 0.00 0.00 0.00 99 1038.9
20260510111947 50 298 1.0 2.0 0.00 0.00 0.00 99 1038.9
20260510111443 50 306 0.0 0.0 0.00 0.00 0.00 99 1039.1
20260510110939 50 342 1.0 1.0 0.00 0.00 0.00 99 1038.9
20260510110435 50 228 1.0 2.0 0.00 0.00 0.00 99 1039.0
20260510105931 50 281 0.0 2.0 0.00 0.00 0.00 99 1038.9
20260510105426 50 40 0.0 1.0 0.00 0.00 0.00 99 1038.9
20260510104922 50 323 1.0 2.0 0.00 0.00 0.00 99 1038.8
20260510104419 50 273 0.0 2.0 0.00 0.00 0.00 99 1038.8
20260510103915 50 267 0.0 0.0 0.00 0.00 0.00 99 1038.7
20260510103408 50 334 1.0 2.0 0.00 0.00 0.00 99 1038.7
20260510102903 49 289 0.0 2.0 0.00 0.00 0.00 99 1038.6
20260510102358 49 1 0.0 2.0 0.00 0.00 0.00 99 1038.5
20260510101856 49 17 2.0 2.0 0.00 0.00 0.00 99 1038.6
20260510101354 49 250 0.0 2.0 0.00 0.00 0.00 99 1038.6
20260510100851 49 254 0.0 1.0 0.00 0.00 0.00 99 1038.8
20260510100348 49 252 0.0 1.0 0.00 0.00 0.00 99 1038.7
20260510095844 49 285 0.0 1.0 0.00 0.00 0.00 99 1038.8
20260510095339 49 323 0.0 1.0 0.00 0.00 0.00 99 1038.9
20260510094838 50 17 2.0 2.0 0.00 0.00 0.00 99 1039.0
20260510094334 50 22 2.0 2.0 0.00 0.00 0.00 99 1039.1
20260510093830 50 74 0.0 2.0 0.00 0.00 0.00 99 1039.0
20260510093326 50 14 0.0 1.0 0.00 0.00 0.00 99 1039.0
20260510092822 50 300 0.0 2.0 0.00 0.00 0.00 99 1039.0
20260510092318 50 10 2.0 2.0 0.00 0.00 0.00 99 1039.0
20260510091814 50 34 2.0 2.0 0.00 0.00 0.00 99 1039.1
20260510091312 50 61 0.0 0.0 0.00 0.00 0.00 99 1039.2
20260510090808 50 15 1.0 2.0 0.00 0.00 0.00 99 1038.9
20260510090305 50 51 0.0 2.0 0.00 0.00 0.00 99 1038.9
20260510085801 50 240 0.0 2.0 0.00 0.00 0.00 99 1038.8
20260510085254 50 349 1.0 2.0 0.00 0.00 0.00 99 1039.2
20260510084751 50 29 0.0 2.0 0.00 0.00 0.00 99 1039.2
20260510084248 50 4 1.0 2.0 0.00 0.00 0.00 99 1039.1
20260510083744 50 91 0.0 1.0 0.00 0.00 0.00 99 1039.0
20260510083242 50 352 2.0 2.0 0.00 0.00 0.00 99 1039.1
20260510082737 50 30 2.0 2.0 0.00 0.00 0.00 99 1039.1
20260510082234 50 31 1.0 2.0 0.00 0.00 0.00 99 1038.9
20260510081733 50 33 2.0 3.0 0.00 0.00 0.00 99 1038.8
20260510081229 49 28 2.0 2.0 0.00 0.00 0.00 99 1038.5
20260510080724 49 33 0.0 2.0 0.00 0.00 0.00 99 1038.5
20260510080220 49 74 0.0 2.0 0.00 0.00 0.00 99 1038.5
20260510075717 50 17 0.0 1.0 0.00 0.00 0.00 99 1038.3
20260510075215 50 56 0.0 2.0 0.00 0.00 0.00 99 1038.3
20260510074712 50 45 0.0 0.0 0.00 0.00 0.00 99 1038.4
20260510074208 50 32 0.0 2.0 0.00 0.00 0.00 99 1038.3
20260510073705 50 17 1.0 2.0 0.00 0.00 0.00 99 1038.4
20260510073200 50 0 1.0 2.0 0.00 0.00 0.00 99 1038.4
20260510072657 50 7 0.0 1.0 0.00 0.00 0.00 99 1038.4
20260510072153 50 300 0.0 1.0 0.00 0.00 0.00 99 1038.5
20260510071650 50 48 1.0 1.0 0.00 0.00 0.00 99 1038.5
20260510071147 50 40 0.0 1.0 0.00 0.00 0.00 99 1038.4
20260510070644 50 48 0.0 1.0 0.00 0.00 0.00 99 1038.6
20260510070142 50 254 0.0 2.0 0.00 0.00 0.00 99 1038.6
20260510065638 50 59 0.0 1.0 0.00 0.00 0.00 99 1038.5
20260510065134 50 305 0.0 1.0 0.00 0.00 0.00 99 1038.5
20260510064631 50 44 0.0 2.0 0.00 0.00 0.00 99 1038.6
20260510064127 50 25 1.0 2.0 0.00 0.00 0.00 99 1038.4
20260510063624 50 20 2.0 2.0 0.00 0.00 0.00 99 1038.3
20260510063121 50 29 2.0 2.0 0.00 0.00 0.00 99 1038.3
20260510062617 50 344 1.0 2.0 0.00 0.00 0.00 99 1038.3
20260510062113 50 7 1.0 1.0 0.00 0.00 0.00 99 1038.1
20260510061609 50 36 0.0 3.0 0.00 0.00 0.00 99 1038.2
20260510061106 50 39 0.0 1.0 0.00 0.00 0.00 99 1037.8
20260510060602 50 51 0.0 1.0 0.00 0.00 0.00 99 1037.9
20260510060059 50 74 0.0 1.0 0.00 0.00 0.00 99 1038.0
20260510055554 50 27 2.0 2.0 0.00 0.00 0.00 99 1038.0
20260510055053 50 74 0.0 1.0 0.00 0.00 0.00 99 1038.2
20260510054548 50 24 1.0 1.0 0.00 0.00 0.00 99 1038.3
20260510054044 51 1 1.0 2.0 0.00 0.00 0.00 99 1038.3
20260510053543 51 34 0.0 1.0 0.00 0.00 0.00 99 1038.3
20260510053041 51 48 0.0 1.0 0.00 0.00 0.00 99 1038.4
20260510052536 51 41 1.0 1.0 0.00 0.00 0.00 99 1038.3
20260510052033 51 36 1.0 2.0 0.00 0.00 0.00 99 1038.3
20260510051528 51 74 0.0 0.0 0.00 0.00 0.00 99 1038.4
20260510051025 51 20 1.0 2.0 0.00 0.00 0.00 99 1038.4
20260510050523 50 29 0.0 1.0 0.00 0.00 0.00 99 1038.5
20260510050019 50 48 0.0 1.0 0.00 0.00 0.00 99 1038.4
20260510045517 50 54 0.0 1.0 0.00 0.00 0.00 99 1038.3
20260510045012 50 300 0.0 0.0 0.00 0.00 0.00 99 1038.5
20260510044510 50 332 0.0 1.0 0.00 0.00 0.00 99 1038.4
20260510044008 50 23 1.0 1.0 0.00 0.00 0.00 99 1038.4
20260510043503 50 29 0.0 1.0 0.00 0.00 0.00 99 1038.2
20260510043002 51 8 1.0 2.0 0.00 0.00 0.00 99 1038.5
20260510042457 51 6 2.0 2.0 0.00 0.00 0.00 99 1038.3
20260510041952 51 104 0.0 0.0 0.00 0.00 0.00 99 1038.2
20260510041450 51 58 1.0 2.0 0.00 0.00 0.00 99 1038.3
20260510040948 51 40 0.0 0.0 0.00 0.00 0.00 99 1038.2
20260510040444 51 61 0.0 0.0 0.00 0.00 0.00 99 1038.2
20260510035940 51 29 0.0 1.0 0.00 0.63 0.63 99 1037.9
20260510035436 51 289 0.0 1.0 0.00 0.63 0.63 99 1038.0
20260510034931 51 348 1.0 1.0 0.00 0.63 0.63 99 1037.8
20260510034430 51 32 0.0 1.0 0.00 0.63 0.63 99 1038.1
20260510033926 51 15 1.0 2.0 0.00 0.63 0.63 99 1038.1
20260510033422 51 26 2.0 2.0 0.00 0.63 0.63 99 1038.0
20260510032919 51 57 0.0 1.0 0.00 0.63 0.63 99 1038.0
20260510032416 51 40 0.0 2.0 0.00 0.63 0.63 99 1038.0
20260510031911 51 74 0.0 1.0 0.00 0.63 0.63 99 1038.2
20260510031406 51 289 0.0 2.0 0.00 0.63 0.63 99 1038.4
20260510030901 51 40 0.0 1.0 0.00 0.63 0.63 99 1038.4
20260510030358 51 283 0.0 2.0 0.00 0.63 0.63 99 1038.5
20260510025856 51 72 0.0 3.0 0.00 0.63 0.63 99 1038.2
20260510025353 51 108 2.0 2.0 0.00 0.63 0.63 99 1038.1
20260510024850 51 67 1.0 2.0 0.00 0.63 0.63 99 1038.1
20260510024346 51 300 0.0 2.0 0.00 0.63 0.63 99 1038.1
20260510023842 51 40 0.0 1.0 0.00 0.63 0.63 99 1038.0
20260510023339 51 294 1.0 1.0 0.00 0.63 0.63 99 1038.1
20260510022837 51 343 1.0 1.0 0.00 0.63 0.63 99 1038.1
20260510022336 51 272 0.0 2.0 0.00 0.63 0.63 99 1038.2
20260510021834 51 169 2.0 2.0 0.00 0.63 0.63 99 1038.2
20260510021333 51 291 0.0 1.0 0.00 0.63 0.63 99 1038.1
20260510020829 51 1 1.0 1.0 0.00 0.63 0.63 99 1038.2
20260510020329 51 285 0.0 2.0 0.00 0.63 0.63 99 1038.1
20260510015825 51 27 0.0 2.0 0.00 0.63 0.63 99 1038.1
20260510015321 51 349 1.0 2.0 0.00 0.63 0.63 99 1038.2
20260510014816 51 147 0.0 2.0 0.00 0.63 0.63 99 1038.1
20260510014314 51 350 1.0 2.0 0.00 0.63 0.63 99 1038.1
20260510013810 51 350 1.0 2.0 0.00 0.63 0.63 99 1038.2
20260510013305 51 278 0.0 0.0 0.00 0.63 0.63 99 1038.3
20260510012800 51 293 2.0 3.0 0.00 0.63 0.63 99 1038.0
20260510012255 51 346 2.0 3.0 0.00 0.63 0.63 99 1038.1
20260510011754 51 40 0.0 1.0 0.00 0.63 0.63 99 1038.0
20260510011250 51 20 0.0 2.0 0.00 0.63 0.63 99 1037.9
20260510010747 51 194 0.0 2.0 0.00 0.63 0.63 99 1037.9
20260510010244 51 176 1.0 2.0 0.00 0.63 0.63 99 1037.9
20260510005741 51 37 0.0 1.0 0.00 0.63 0.63 99 1037.9
20260510005237 51 54 0.0 2.0 0.00 0.63 0.63 99 1037.8
20260510004735 51 41 2.0 3.0 0.00 0.63 0.63 99 1037.8
20260510004233 51 260 0.0 0.0 0.00 0.63 0.63 99 1037.7
20260510003730 51 214 0.0 2.0 0.00 0.63 0.63 99 1037.6
20260510003226 51 40 0.0 0.0 0.00 0.63 0.63 99 1037.7
20260510002725 51 151 0.0 2.0 0.00 0.63 0.63 99 1037.6
20260510002223 51 33 0.0 2.0 0.00 0.63 0.63 99 1037.5
20260510001719 51 358 0.0 2.0 0.00 0.63 0.63 99 1037.5
20260510001218 51 146 1.0 1.0 0.00 0.63 0.63 99 1037.5
20260510000713 51 261 1.0 2.0 0.00 0.63 0.63 99 1037.5
20260510000211 51 22 0.0 2.0 0.00 0.63 0.63 99 1037.5
20260509235707 52 117 3.0 4.0 0.02 0.63 0.63 99 1037.5
20260509235204 52 230 0.0 2.0 0.02 0.63 0.63 99 1037.4
20260509234700 52 200 2.0 2.0 0.00 0.63 0.63 99 1037.4
20260509234157 52 249 0.0 3.0 0.05 0.63 0.63 99 1037.3
20260509233655 52 191 1.0 1.0 0.05 0.63 0.63 99 1037.3
20260509233153 52 299 0.0 3.0 0.00 0.62 0.62 99 1037.5
20260509232648 52 288 1.0 2.0 0.02 0.62 0.62 99 1037.6
20260509232145 52 151 4.0 5.0 0.05 0.62 0.62 99 1037.4
20260509231642 52 171 0.0 2.0 0.05 0.62 0.62 99 1037.7
20260509231139 52 126 1.0 3.0 0.05 0.61 0.61 99 1037.7
20260509230636 53 137 2.0 3.0 0.09 0.61 0.61 99 1038.1
20260509230133 53 116 3.0 3.0 0.12 0.61 0.61 99 1038.0
20260509225629 52 103 2.0 2.0 0.14 0.59 0.59 99 1038.3
20260509225125 52 38 0.0 2.0 0.26 0.58 0.58 99 1038.4
20260509224620 53 34 0.0 2.0 0.28 0.57 0.57 99 1038.4
20260509224117 53 51 0.0 1.0 0.12 0.54 0.54 99 1038.7
20260509223614 53 307 1.0 1.0 0.05 0.52 0.52 99 1038.5
20260509223112 53 268 0.0 0.0 0.12 0.52 0.52 99 1038.3
20260509222608 53 33 2.0 2.0 0.17 0.50 0.50 99 1038.3
20260509222104 53 74 0.0 1.0 0.14 0.49 0.49 99 1038.5
20260509221559 53 345 1.0 2.0 0.12 0.48 0.48 99 1038.5
20260509221056 53 306 0.0 0.0 0.17 0.47 0.47 99 1038.4
20260509220552 53 309 0.0 1.0 0.17 0.46 0.46 99 1038.4